AEZ2021 LIRF-LIMC

Flight info

Callsign AEZ2021
Flight time 1h 11m
Altitude 38000
Route XENOL5AXNEMBO7A/25 NEMBO DCT UPDIN DCT SPEZI DCT IDONA DCT MEBUR
Aircraft E195/M-SDE3GILORVW/S

Departure

Time 2026-02-17 11:15
Airport Rome–Fiumicino Leonardo da Vinci International Airport (LIRF)

Arrival

Time 2026-02-17 12:27
Airport Milan Malpensa International Airport (LIMC)
Time Latitude Longitude Altitude Speed Heading
2026-02-17 11:04 41.79760 12.26547 14 ft 0 kts 69°
2026-02-17 11:08 41.79761 12.26552 14 ft 2 kts 69°
2026-02-17 11:08 41.79772 12.26586 16 ft 5 kts 63°
2026-02-17 11:08 41.79809 12.26595 14 ft 7 kts 344°
2026-02-17 11:08 41.79858 12.26573 15 ft 8 kts 342°
2026-02-17 11:09 41.79919 12.26545 15 ft 11 kts 340°
2026-02-17 11:09 41.80000 12.26505 14 ft 14 kts 340°
2026-02-17 11:09 41.80093 12.26459 15 ft 14 kts 340°
2026-02-17 11:09 41.80181 12.26416 14 ft 12 kts 341°
2026-02-17 11:10 41.80267 12.26387 14 ft 14 kts 321°
2026-02-17 11:10 41.80307 12.26289 15 ft 8 kts 295°
2026-02-17 11:10 41.80320 12.26251 14 ft 3 kts 294°
2026-02-17 11:11 41.80324 12.26241 14 ft 1 kts 294°
2026-02-17 11:11 41.80325 12.26237 14 ft 2 kts 294°
2026-02-17 11:11 41.80350 12.26192 14 ft 10 kts 319°
2026-02-17 11:11 41.80427 12.26165 14 ft 12 kts 16°
2026-02-17 11:12 41.80509 12.26211 15 ft 13 kts 42°
2026-02-17 11:12 41.80554 12.26326 14 ft 15 kts 69°
2026-02-17 11:12 41.80594 12.26470 14 ft 17 kts 69°
2026-02-17 11:12 41.80638 12.26626 14 ft 18 kts 71°
2026-02-17 11:13 41.80681 12.26787 14 ft 16 kts 69°
2026-02-17 11:13 41.80716 12.26911 14 ft 15 kts 70°
2026-02-17 11:13 41.80752 12.27023 16 ft 11 kts 51°
2026-02-17 11:13 41.80825 12.27033 15 ft 10 kts 341°
2026-02-17 11:14 41.80883 12.27006 14 ft 9 kts 341°
2026-02-17 11:14 41.80945 12.26976 13 ft 10 kts 337°
2026-02-17 11:14 41.80950 12.26896 12 ft 9 kts 246°
2026-02-17 11:15 41.80776 12.26264 19 ft 95 kts 248°
2026-02-17 11:15 41.80467 12.25161 41 ft 153 kts 253°
2026-02-17 11:15 41.80047 12.23795 716 ft 163 kts 252°
2026-02-17 11:15 41.79592 12.22319 1243 ft 178 kts 253°
2026-02-17 11:16 41.79204 12.20728 1862 ft 184 kts 262°
2026-02-17 11:16 41.79000 12.19000 2432 ft 192 kts 271°
2026-02-17 11:16 41.78959 12.17202 3041 ft 199 kts 275°
2026-02-17 11:16 41.79017 12.15293 3527 ft 211 kts 279°
2026-02-17 11:17 41.79240 12.13328 4029 ft 215 kts 298°
2026-02-17 11:17 41.80185 12.11883 4663 ft 206 kts 332°
2026-02-17 11:17 41.81350 12.10733 5227 ft 214 kts 315°
2026-02-17 11:17 41.82240 12.09103 5766 ft 222 kts 302°
2026-02-17 11:18 41.82788 12.07144 6315 ft 227 kts 290°
2026-02-17 11:18 41.83238 12.05113 6848 ft 226 kts 293°
2026-02-17 11:18 41.83763 12.03119 7350 ft 227 kts 294°
2026-02-17 11:19 41.84741 11.99078 8301 ft 229 kts 294°
2026-02-17 11:19 41.85245 11.97045 8782 ft 229 kts 293°
2026-02-17 11:19 41.85757 11.94967 8956 ft 245 kts 293°
2026-02-17 11:19 41.86323 11.92758 9349 ft 255 kts 293°
2026-02-17 11:20 41.86901 11.90486 10009 ft 258 kts 293°
2026-02-17 11:20 41.87483 11.88200 10712 ft 259 kts 293°
2026-02-17 11:20 41.88066 11.85907 11440 ft 260 kts 293°
2026-02-17 11:20 41.88647 11.83598 12256 ft 262 kts 293°
2026-02-17 11:21 41.89226 11.81277 13441 ft 264 kts 293°
2026-02-17 11:21 41.89806 11.78931 14425 ft 270 kts 293°
2026-02-17 11:21 41.90220 11.77272 14479 ft 295 kts 293°
2026-02-17 11:21 41.90888 11.74589 15137 ft 309 kts 293°
2026-02-17 11:22 41.91577 11.71826 16099 ft 314 kts 293°
2026-02-17 11:22 41.92261 11.69028 17134 ft 317 kts 293°
2026-02-17 11:22 41.92927 11.66206 18244 ft 316 kts 294°
2026-02-17 11:23 41.94141 11.60573 20318 ft 311 kts 294°
2026-02-17 11:23 41.94686 11.57780 21360 ft 308 kts 293°
2026-02-17 11:23 41.95191 11.54994 22355 ft 306 kts 293°
2026-02-17 11:23 41.95663 11.52212 23311 ft 305 kts 293°
2026-02-17 11:24 41.96109 11.49425 24008 ft 306 kts 293°
2026-02-17 11:24 41.96530 11.46611 24633 ft 308 kts 293°
2026-02-17 11:24 41.96928 11.43773 25271 ft 311 kts 293°
2026-02-17 11:24 41.97309 11.40917 25862 ft 313 kts 293°
2026-02-17 11:25 41.97673 11.38018 26446 ft 315 kts 293°
2026-02-17 11:25 41.98019 11.35097 27018 ft 317 kts 293°
2026-02-17 11:25 41.98349 11.32154 27572 ft 320 kts 293°
2026-02-17 11:25 41.98663 11.29183 28097 ft 320 kts 293°
2026-02-17 11:26 41.98954 11.26200 28609 ft 324 kts 293°
2026-02-17 11:26 41.99315 11.23234 29072 ft 315 kts 299°
2026-02-17 11:26 42.00041 11.20599 29748 ft 296 kts 309°
2026-02-17 11:27 42.02215 11.16072 30731 ft 287 kts 313°
2026-02-17 11:27 42.03326 11.13835 31152 ft 287 kts 313°
2026-02-17 11:27 42.04450 11.11617 31575 ft 287 kts 313°
2026-02-17 11:27 42.05588 11.09412 31993 ft 287 kts 313°
2026-02-17 11:28 42.06737 11.07222 32401 ft 286 kts 313°
2026-02-17 11:28 42.07899 11.05048 32800 ft 286 kts 313°
2026-02-17 11:28 42.09075 11.02882 33186 ft 287 kts 313°
2026-02-17 11:28 42.10257 11.00725 33562 ft 287 kts 313°
2026-02-17 11:29 42.11454 10.98571 33903 ft 287 kts 313°
2026-02-17 11:29 42.12662 10.96429 34166 ft 288 kts 313°
2026-02-17 11:29 42.13879 10.94281 34430 ft 289 kts 313°
2026-02-17 11:29 42.15101 10.92131 34690 ft 289 kts 313°
2026-02-17 11:30 42.16330 10.89978 34950 ft 290 kts 313°
2026-02-17 11:30 42.17564 10.87819 35189 ft 291 kts 313°
2026-02-17 11:30 42.18867 10.85737 35428 ft 290 kts 317°
2026-02-17 11:31 42.22206 10.82759 35868 ft 291 kts 330°
2026-02-17 11:31 42.24010 10.81513 36094 ft 292 kts 330°
2026-02-17 11:31 42.25810 10.80246 36318 ft 292 kts 330°
2026-02-17 11:31 42.27619 10.78976 36521 ft 293 kts 330°
2026-02-17 11:32 42.29430 10.77702 36748 ft 294 kts 330°
2026-02-17 11:32 42.31241 10.76432 36955 ft 295 kts 330°
2026-02-17 11:32 42.33068 10.75150 37160 ft 295 kts 330°
2026-02-17 11:32 42.34894 10.73867 37384 ft 296 kts 330°
2026-02-17 11:33 42.36698 10.72604 37552 ft 297 kts 330°
2026-02-17 11:33 42.38534 10.71318 37733 ft 298 kts 330°
2026-02-17 11:33 42.42245 10.68722 37712 ft 300 kts 330°
2026-02-17 11:34 42.44092 10.67423 37714 ft 299 kts 328°
2026-02-17 11:34 42.45874 10.65973 37752 ft 300 kts 327°
2026-02-17 11:35 42.51395 10.61609 37856 ft 313 kts 328°
2026-02-17 11:35 42.55216 10.58624 37870 ft 320 kts 328°
2026-02-17 11:35 42.57140 10.57121 37763 ft 321 kts 327°
2026-02-17 11:36 42.59087 10.55597 37804 ft 323 kts 327°
2026-02-17 11:36 42.62982 10.52543 37817 ft 325 kts 327°
2026-02-17 11:37 42.66907 10.49463 37828 ft 326 kts 327°
2026-02-17 11:37 42.70807 10.46399 37855 ft 326 kts 327°
2026-02-17 11:38 42.74739 10.43305 37870 ft 327 kts 327°
2026-02-17 11:38 42.78657 10.40218 37884 ft 323 kts 328°
2026-02-17 11:39 42.84511 10.35592 37873 ft 325 kts 328°
2026-02-17 11:39 42.88417 10.32503 37870 ft 325 kts 328°
2026-02-17 11:40 42.92324 10.29407 37872 ft 324 kts 328°
2026-02-17 11:40 42.96227 10.26311 37877 ft 324 kts 327°
2026-02-17 11:41 43.00120 10.23216 37870 ft 323 kts 327°
2026-02-17 11:41 43.04009 10.20123 37831 ft 322 kts 327°
2026-02-17 11:42 43.07875 10.17041 37872 ft 321 kts 327°
2026-02-17 11:43 43.13640 10.12437 37880 ft 321 kts 327°
2026-02-17 11:43 43.17495 10.09353 37878 ft 321 kts 327°
2026-02-17 11:44 43.21362 10.06258 37878 ft 322 kts 326°
2026-02-17 11:44 43.25235 10.03150 37871 ft 322 kts 326°
2026-02-17 11:45 43.29103 10.00041 37872 ft 322 kts 326°
2026-02-17 11:45 43.32970 9.96927 37881 ft 322 kts 326°
2026-02-17 11:46 43.36839 9.93809 37880 ft 322 kts 326°
2026-02-17 11:46 43.40704 9.90690 37874 ft 323 kts 326°
2026-02-17 11:47 43.46525 9.85985 37875 ft 324 kts 326°
2026-02-17 11:47 43.50404 9.82843 37870 ft 322 kts 326°
2026-02-17 11:48 43.54266 9.79711 37879 ft 322 kts 326°
2026-02-17 11:48 43.58097 9.76597 37876 ft 322 kts 326°
2026-02-17 11:49 43.61952 9.73459 37876 ft 323 kts 326°
2026-02-17 11:49 43.65829 9.70299 37873 ft 324 kts 326°
2026-02-17 11:50 43.69711 9.67130 37878 ft 324 kts 326°
2026-02-17 11:51 43.75534 9.62370 37872 ft 324 kts 326°
2026-02-17 11:51 43.79388 9.59211 37872 ft 324 kts 326°
2026-02-17 11:52 43.83265 9.56028 37869 ft 325 kts 326°
2026-02-17 11:52 43.87165 9.52824 37875 ft 326 kts 326°
2026-02-17 11:52 43.89115 9.51221 37397 ft 324 kts 326°
2026-02-17 11:53 43.90996 9.49681 37383 ft 306 kts 326°
2026-02-17 11:53 43.94264 9.46985 37353 ft 305 kts 326°
2026-02-17 11:54 43.95692 9.45799 37265 ft 310 kts 326°
2026-02-17 11:54 43.97580 9.44274 36847 ft 319 kts 329°
2026-02-17 11:54 43.99680 9.43174 36194 ft 329 kts 338°
2026-02-17 11:55 44.04114 9.41670 35293 ft 328 kts 340°
2026-02-17 11:55 44.06335 9.40930 34860 ft 328 kts 340°
2026-02-17 11:55 44.08554 9.40184 34405 ft 328 kts 340°
2026-02-17 11:55 44.10765 9.39440 33974 ft 327 kts 340°
2026-02-17 11:56 44.12973 9.38699 33518 ft 326 kts 340°
2026-02-17 11:56 44.15172 9.37957 33113 ft 325 kts 341°
2026-02-17 11:56 44.17375 9.37216 32678 ft 326 kts 341°
2026-02-17 11:56 44.19581 9.36471 32243 ft 327 kts 341°
2026-02-17 11:57 44.21792 9.35725 31815 ft 327 kts 341°
2026-02-17 11:57 44.24005 9.34979 31397 ft 328 kts 341°
2026-02-17 11:57 44.26193 9.34240 30936 ft 327 kts 341°
2026-02-17 11:57 44.28404 9.33494 30500 ft 327 kts 341°
2026-02-17 11:58 44.30614 9.32743 30073 ft 326 kts 341°
2026-02-17 11:58 44.32823 9.31996 29611 ft 327 kts 341°
2026-02-17 11:58 44.35035 9.31247 29207 ft 329 kts 341°
2026-02-17 11:59 44.39533 9.29739 28337 ft 334 kts 341°
2026-02-17 11:59 44.41787 9.28956 27857 ft 333 kts 341°
2026-02-17 11:59 44.44016 9.28200 27456 ft 328 kts 341°
2026-02-17 11:59 44.46229 9.27457 27021 ft 326 kts 341°
2026-02-17 12:00 44.48416 9.26697 26557 ft 323 kts 340°
2026-02-17 12:00 44.50582 9.25942 26144 ft 323 kts 341°
2026-02-17 12:00 44.52783 9.25205 25727 ft 325 kts 341°
2026-02-17 12:00 44.54965 9.24463 25297 ft 325 kts 340°
2026-02-17 12:01 44.57157 9.23722 24846 ft 323 kts 340°
2026-02-17 12:01 44.59343 9.22985 24446 ft 323 kts 340°
2026-02-17 12:01 44.61517 9.22232 23963 ft 322 kts 340°
2026-02-17 12:01 44.63685 9.21476 23580 ft 320 kts 340°
2026-02-17 12:02 44.65834 9.20746 23104 ft 315 kts 340°
2026-02-17 12:02 44.67963 9.20021 22708 ft 317 kts 340°
2026-02-17 12:02 44.70121 9.19284 22362 ft 318 kts 340°
2026-02-17 12:03 44.74405 9.17677 21457 ft 317 kts 335°
2026-02-17 12:03 44.76316 9.16155 20674 ft 321 kts 321°
2026-02-17 12:03 44.77668 9.13635 20025 ft 328 kts 301°
2026-02-17 12:03 44.78622 9.10733 19685 ft 326 kts 302°
2026-02-17 12:04 44.79736 9.07961 19241 ft 325 kts 306°
2026-02-17 12:04 44.80923 9.05233 18831 ft 327 kts 306°
2026-02-17 12:04 44.82082 9.02458 18361 ft 330 kts 304°
2026-02-17 12:04 44.83239 8.99654 17904 ft 332 kts 304°
2026-02-17 12:05 44.84401 8.96858 17492 ft 332 kts 304°
2026-02-17 12:05 44.84799 8.95912 17340 ft 332 kts 304°
2026-02-17 12:05 44.86347 8.92197 16758 ft 332 kts 304°
2026-02-17 12:05 44.87904 8.88440 16183 ft 331 kts 304°
2026-02-17 12:06 44.89055 8.85663 15738 ft 324 kts 304°
2026-02-17 12:06 44.90171 8.82960 15302 ft 314 kts 304°
2026-02-17 12:06 44.91255 8.80345 14892 ft 304 kts 304°
2026-02-17 12:07 44.93327 8.75335 14118 ft 288 kts 304°
2026-02-17 12:07 44.94326 8.72916 13730 ft 283 kts 304°
2026-02-17 12:07 44.95306 8.70540 13330 ft 277 kts 304°
2026-02-17 12:07 44.96255 8.68242 12992 ft 272 kts 304°
2026-02-17 12:08 44.97200 8.65940 12636 ft 270 kts 304°
2026-02-17 12:08 44.98142 8.63655 12286 ft 268 kts 304°
2026-02-17 12:08 44.99086 8.61400 12038 ft 263 kts 306°
2026-02-17 12:08 45.00258 8.59458 11877 ft 258 kts 322°
2026-02-17 12:09 45.01867 8.58419 11835 ft 257 kts 347°
2026-02-17 12:09 45.03630 8.57968 11835 ft 258 kts 347°
2026-02-17 12:09 45.05389 8.57442 11816 ft 259 kts 346°
2026-02-17 12:09 45.07149 8.56950 11360 ft 263 kts 347°
2026-02-17 12:10 45.08927 8.56457 11026 ft 256 kts 347°
2026-02-17 12:10 45.10685 8.55968 10867 ft 258 kts 347°
2026-02-17 12:10 45.12458 8.55479 10596 ft 260 kts 347°
2026-02-17 12:11 45.16017 8.54489 9814 ft 260 kts 347°
2026-02-17 12:11 45.17792 8.53993 9451 ft 260 kts 347°
2026-02-17 12:11 45.19562 8.53504 9125 ft 259 kts 347°
2026-02-17 12:11 45.21336 8.53012 8997 ft 262 kts 347°
2026-02-17 12:12 45.23135 8.52509 8791 ft 264 kts 347°
2026-02-17 12:12 45.24934 8.52011 8633 ft 261 kts 347°
2026-02-17 12:12 45.26695 8.51522 8628 ft 258 kts 347°
2026-02-17 12:12 45.27862 8.51200 8604 ft 257 kts 346°
2026-02-17 12:13 45.29616 8.50735 8455 ft 257 kts 349°
2026-02-17 12:13 45.31413 8.50777 8144 ft 263 kts
2026-02-17 12:13 45.33096 8.51932 7482 ft 281 kts 36°
2026-02-17 12:13 45.34286 8.54200 6842 ft 295 kts 65°
2026-02-17 12:14 45.34620 8.57062 6430 ft 296 kts 93°
2026-02-17 12:14 45.34399 8.59930 6045 ft 284 kts 90°
2026-02-17 12:14 45.34466 8.62654 5830 ft 272 kts 90°
2026-02-17 12:15 45.32913 8.67313 5550 ft 269 kts 148°
2026-02-17 12:15 45.31190 8.68200 5577 ft 264 kts 179°
2026-02-17 12:15 45.29376 8.68035 5616 ft 262 kts 186°
2026-02-17 12:15 45.27543 8.68203 5639 ft 266 kts 173°
2026-02-17 12:16 45.25723 8.68668 5658 ft 266 kts 172°
2026-02-17 12:16 45.23892 8.69137 5664 ft 271 kts 172°
2026-02-17 12:16 45.22041 8.69640 5671 ft 272 kts 170°
2026-02-17 12:16 45.20297 8.70693 5670 ft 277 kts 143°
2026-02-17 12:17 45.19099 8.72760 5665 ft 272 kts 113°
2026-02-17 12:17 45.18766 8.75325 5602 ft 263 kts 82°
2026-02-17 12:17 45.19341 8.77662 5570 ft 252 kts 51°
2026-02-17 12:17 45.20388 8.79629 5597 ft 250 kts 51°
2026-02-17 12:18 45.21485 8.81496 5580 ft 243 kts 32°
2026-02-17 12:18 45.22971 8.82517 5586 ft 236 kts 17°
2026-02-17 12:18 45.24475 8.83495 5539 ft 240 kts 20°
2026-02-17 12:19 45.27588 8.83210 5542 ft 230 kts 337°
2026-02-17 12:19 45.29138 8.82617 5526 ft 233 kts 348°
2026-02-17 12:19 45.30744 8.82301 5519 ft 233 kts 347°
2026-02-17 12:19 45.32328 8.81824 5529 ft 235 kts 344°
2026-02-17 12:20 45.33921 8.81352 5572 ft 232 kts 347°
2026-02-17 12:20 45.35509 8.80938 5610 ft 232 kts 346°
2026-02-17 12:20 45.37098 8.80510 5601 ft 233 kts 346°
2026-02-17 12:20 45.38708 8.80071 5294 ft 236 kts 346°
2026-02-17 12:21 45.40316 8.79613 4947 ft 234 kts 346°
2026-02-17 12:21 45.41844 8.79197 4615 ft 214 kts 345°
2026-02-17 12:21 45.43273 8.78804 4342 ft 207 kts 345°
2026-02-17 12:21 45.44678 8.78421 4146 ft 204 kts 347°
2026-02-17 12:22 45.46044 8.78048 3867 ft 196 kts 347°
2026-02-17 12:22 45.47352 8.77684 3595 ft 187 kts 347°
2026-02-17 12:22 45.48600 8.77337 3340 ft 179 kts 347°
2026-02-17 12:23 45.50962 8.76686 2873 ft 165 kts 348°
2026-02-17 12:23 45.52044 8.76389 2664 ft 153 kts 348°
2026-02-17 12:23 45.53081 8.76104 2455 ft 151 kts 349°
2026-02-17 12:23 45.54108 8.75824 2272 ft 149 kts 348°
2026-02-17 12:24 45.55103 8.75547 2075 ft 148 kts 349°
2026-02-17 12:24 45.56103 8.75266 1844 ft 145 kts 349°
2026-02-17 12:24 45.57082 8.74995 1652 ft 143 kts 349°
2026-02-17 12:24 45.57347 8.74921 1606 ft 144 kts 349°
2026-02-17 12:25 45.58069 8.74719 1447 ft 146 kts 349°
2026-02-17 12:25 45.59048 8.74444 1280 ft 142 kts 349°
2026-02-17 12:25 45.60033 8.74171 1081 ft 143 kts 350°
2026-02-17 12:25 45.61009 8.73906 888 ft 143 kts 350°
2026-02-17 12:26 45.61977 8.73637 747 ft 136 kts 350°
2026-02-17 12:26 45.62813 8.73408 736 ft 108 kts 349°
2026-02-17 12:26 45.63414 8.73243 736 ft 51 kts 349°
2026-02-17 12:27 45.63825 8.72892 735 ft 27 kts 306°
2026-02-17 12:27 45.63923 8.72689 735 ft 22 kts 303°
2026-02-17 12:27 45.63944 8.72480 735 ft 22 kts 259°
2026-02-17 12:27 45.63923 8.72316 735 ft 10 kts 263°
2026-02-17 12:28 45.63916 8.72209 735 ft 12 kts 266°
2026-02-17 12:28 45.63911 8.72077 736 ft 16 kts 266°
2026-02-17 12:28 45.63899 8.71922 736 ft 13 kts 259°
2026-02-17 12:28 45.63825 8.71825 734 ft 18 kts 191°
2026-02-17 12:29 45.63686 8.71855 735 ft 22 kts 169°
2026-02-17 12:29 45.63519 8.71902 733 ft 26 kts 169°
2026-02-17 12:29 45.63336 8.71953 735 ft 27 kts 169°
2026-02-17 12:29 45.63152 8.72003 735 ft 26 kts 169°
2026-02-17 12:30 45.62972 8.72055 736 ft 27 kts 168°
2026-02-17 12:30 45.62795 8.72104 735 ft 26 kts 169°
2026-02-17 12:30 45.62616 8.72154 734 ft 25 kts 169°
2026-02-17 12:31 45.62367 8.72131 735 ft 16 kts 254°
2026-02-17 12:31 45.62346 8.71978 735 ft 15 kts 259°
2026-02-17 12:31 45.62387 8.71903 735 ft 6 kts 354°
2026-02-17 12:31 45.62403 8.71934 735 ft 4 kts 77°
2026-02-17 12:32 45.62408 8.71981 735 ft 6 kts 85°
2026-02-17 12:32 45.62412 8.72013 734 ft 0 kts 78°